Airfield :
LOGIN :

Register | Disclaimer

   EN    FR    IT 

 










Legend :    VFR   Marginal VFR   IFR   Intensive IFR   Very Intensive IFR
Visi :
Ceiling :
>= 8 km
>= 3000ft
5 to 8 km
1000 to 3000 ft
1500m to 5 km
500 to 1000 ft
800 to 1500m
200 to 500 ft
< 800m
< 200 ft
Symbols :   Thunderstorms  Fog  Heavy snow  Heavy precipitations  Wind > 20 kt
SIGMETs :     Misc.  Thunderstorms  Icing  Turbulence  Mountain Waves  Volcanic Ashes







- Airport Elevation : 308 ft
- IATA code : MHG


EDFM - Mannheim-City

CURRENT METAR :
  • 190620Z 15006KT 120V180 CAVOK 23/15 Q1010

EXPIRED METARs :
  • 190550Z 15006KT 120V190 CAVOK 22/15 Q1010
  • 190520Z 16005KT CAVOK 21/15 Q1010
  • 190450Z 16005KT CAVOK 21/16 Q1010
  • 190420Z 15005KT CAVOK 20/16 Q1010
  • 190350Z 17004KT 140V200 CAVOK 20/16 Q1010

TAF TAF EDFM
Valid from the 19 at 06:00 until the 19 at 15:00 UTC


190500Z 1906/1915 VRB03KT CAVOK
BECMG 1906/1909 19008KT
No reported NOTAMs for that airfield.



MET'MAP, your aeronautical weather chart ! - Copyright ORBIFLY December 2007 - Disclaimer

ORBIFLY MET'MAP TEAM :

Programming & Development : Alexandra Zaïnal
Concept & Development : Baudouin d'Aumeries
Co-Development & Prog : Marc-Olivier Méhu
Technical & hardware support : Manuel Goepfert

Contact : metmap@orbifly.com




SOURCES & CREDITS :

   NOAA